Regional Weather Roundup
Issued by NWS

Home | Current Version | Previous Version | Graphics & Text | Print | Product List | Glossary On
Versions: 1 2 3 4 5 6 7 8 9 10 11 12 13 14 15 16 17 18 19 20 21 22 23 24 25 26 27 28 29 30 31 32 33 34 35 36 37 38 39 40 41 42 43 44 45 46 47 48 49 50
000
ASUS43 KMPX 240501
RWRMN
WEATHER ROUNDUP FOR MINNESOTA
NATIONAL WEATHER SERVICE TWIN CITIES/CHANHASSEN MN
1200 AM CDT MON JUL 24 2017


NOTE: "FAIR" INDICATES FEW OR NO CLOUDS BELOW 12,000 FEET WITH NO
SIGNIFICANT WEATHER AND/OR OBSTRUCTIONS TO VISIBILITY. N/A MEANS
CURRENT SKY AND/OR WEATHER CONDITIONS ARE NOT AVAILABLE.

MNZ060>063-068>070-240600-
   Twin Cities Metro

CITY           SKY/WX    TMP DP  RH WIND       PRES   REMARKS
TWIN CITIES    CLEAR     65  56  72 NE7       30.03R
ST PAUL        CLEAR     64  58  80 E3        30.03R
CRYSTAL        CLEAR     62  56  80 CALM      30.02R
BLAINE         CLEAR     63  59  88 CALM      30.03R
LAKEVILLE      CLEAR     59  59 100 CALM      30.02S
EDEN PRAIRIE   CLEAR     66  58  75 NE8       30.02R
SOUTH ST PAUL  CLEAR     65  57  77 CALM      30.02S
LAKE ELMO      FAIR      61  57  88 NE3       30.04R
$$
MNZ001>005-007-008-013>017-022>024-027-028-240600-
   Northwest Minnesota

CITY           SKY/WX    TMP DP  RH WIND       PRES   REMARKS
BEMIDJI        CLEAR     57  55  92 CALM      30.03S
HALLOCK        CLEAR     63  61  94 SE7       29.97S
ROSEAU         CLEAR     63  57  82 CALM      30.00S
WARROAD        PTCLDY    63  59  88 CALM      30.01R
CROOKSTON      CLEAR     63  61  94 S3        30.00S
FOSSTON        CLEAR     57  55  94 SE3       30.03S
DETROIT LAKES  PTCLDY    64  57  77 SE5       30.04S
MOORHEAD       CLEAR     64  61  88 CALM      30.01S
PARK RAPIDS    CLEAR     58  54  86 SW5       30.04R
MAHNOMEN       FAIR      61  58  90 S3        30.02S
$$
MNZ006-009>011-018-025>026-240600-
   North Central Minnesota

CITY           SKY/WX    TMP DP  RH WIND       PRES   REMARKS
BAUDETTE       CLEAR     61  58  90 SW6       30.00S
FLAG ISLAND      N/A     70  61  73 CALM      29.98S HAZE
INTL FALLS     CLEAR     52  50  93 CALM      30.01R
WASKISH        CLEAR     57  55  94 CALM      30.02S
BIG FORK       PTCLDY    54  54 100 CALM      30.04R FOG
LONGVILLE      CLEAR     54  54 100 CALM      30.05R
GRAND RAPIDS   CLEAR     61  57  87 SE7       30.07R
CRANE LAKE     CLEAR     57  55  94 CALM      30.05R
ORR            CLEAR     59  55  88 SE3       30.02S
COOK           CLEAR     57  57 100 CALM      30.05R
WALKER         FAIR      56  55  97 CALM      30.04R
$$
MNZ012-019>021-037-240600-
   Northeast Minnesota

CITY           SKY/WX    TMP DP  RH WIND       PRES   REMARKS
DULUTH         FOG       54  54 100 SE6       30.05S VSB 3/4
ELY            CLEAR     54  52  94 CALM      30.05S
HIBBING        PTCLDY    53  53 100 CALM      30.06R
EVELETH        FOG       54  51  90 CALM      30.07R VSB 1
DULUTH HARBOR  CLOUDY    59  57  94 CALM      30.05S
TWO HARBORS    CLEAR     52  46  82 CALM      30.04R
GRAND MARAIS     N/A     53  51  93 CALM      30.03R
G MARAIS ARPRT CLEAR     48  45  87 CALM      30.06S
$$
MNZ029>031-032-039>041-046>048-054>057-064-240600-
   West Central Minnesota

CITY           SKY/WX    TMP DP  RH WIND       PRES   REMARKS
FERGUS FALLS   PTCLDY    64  63  94 NE3       30.02R
WHEATON        CLEAR     63  57  82 CALM      30.03S
MORRIS         PTCLDY    63  59  88 CALM      30.02R
ALEXANDRIA     CLEAR     64  60  87 E6        30.05R
ELBOW LAKE     FAIR      66  62  86 CALM      30.03S
WADENA         CLEAR     57  57 100 CALM      30.04S
GLENWOOD       PTCLDY    63  61  94 CALM      30.05R
APPLETON       MOCLDY    64  59  82 CALM      30.02R
BENSON         MOCLDY    63  61  94 CALM      30.04S
ORTONVILLE     CLEAR     64  57  77 CALM      30.02S
MADISON        CLEAR     64  59  82 CALM      30.02S
WILLMAR        FAIR      66  61  82 E6        30.05R
$$
MNZ033>034-036-042>043-049>051-058-059-240600-
   Central Minnesota

CITY           SKY/WX    TMP DP  RH WIND       PRES   REMARKS
ST CLOUD       CLEAR     58  58 100 CALM      30.04R
SAUK CENTRE    FAIR      61  58  92 CALM      30.05R
PAYNESVILLE    CLEAR     65  59  82 CALM      30.05R
AITKIN         CLEAR     55  54  94 CALM      30.04S
PINE RIVER     CLEAR     55  55 100 CALM      30.08R
BRAINERD       CLEAR     58  57  97 CALM      30.05R
STAPLES        CLEAR     61  57  88 CALM      30.05R
LONG PRAIRIE   FAIR      61  59  94 E5        30.05R
LITTLE FALLS   CLEAR     61  55  82 CALM      30.05R
LITCHFIELD     CLEAR     63  61  94 CALM      30.04R
BUFFALO        CLEAR     62  57  84 CALM      30.04S
MAPLE LAKE     CLEAR     61  59  94 CALM      30.05R
HUTCHINSON     CLEAR     63  60  87 NE5       30.04R
$$
MNZ037-044-045-052-053-240600-
   East Central Minnesota

CITY           SKY/WX    TMP DP  RH WIND       PRES   REMARKS
PRINCETON      CLEAR     57  57 100 CALM      30.04S
MORA           CLEAR     55  52  88 CALM      30.06S
CAMBRIDGE      CLEAR     61  54  77 CALM      30.03R
RUSH CITY      MOCLDY    59  56  89 CALM      30.05R
MOOSE LAKE     CLEAR     55  54  94 CALM      30.04R
HINCKLEY       FAIR      55  55 100 CALM      30.05R
CLOQUET        CLOUDY    55  54  94 E5        30.06R FOG
MCGREGOR       CLEAR     55  54  94 CALM      30.05S
$$
MNZ071>073-080-081-089-090-097-098-240600-
   Southwest Minnesota

CITY           SKY/WX    TMP DP  RH WIND       PRES   REMARKS
MONTEVIDEO     PTCLDY    64  57  77 NE3       30.03R
GRANITE FALLS  CLEAR     65  62  89 CALM      30.04R
CANBY          CLEAR     60  57  89 CALM      30.04S
MARSHALL       CLEAR     61  59  93 NW6       30.03
REDWOOD FALLS  MOCLDY    67  60  78 E3        30.02R
OLIVIA         CLEAR     63  57  82 E3        30.03R
PIPESTONE      CLEAR     64  57  77 CALM      30.04R
WINDOM         CLEAR     63  59  88 N5        30.03R
WORTHINGTON    CLEAR     59  57  93 NW3       30.04S
JACKSON        PTCLDY    61  59  94 CALM      30.03S
SLAYTON        HVY RAIN  60  57  88 CALM      30.04S
$$
MNZ065>067-074>077-082>085-091>093-240600-
   South Central Minnesota

CITY           SKY/WX    TMP DP  RH WIND       PRES   REMARKS
MANKATO        CLEAR     65  59  81 E8        30.02R
NEW ULM        CLEAR     66  57  72 CALM      30.02R
ST JAMES       CLOUDY    66  63  88 NE3       30.03R
FAIRMONT       CLOUDY    65  63  93 NE3       30.03R
GLENCOE        CLEAR     64  61  90 CALM      30.02R
FARIBAULT      CLEAR     61  57  88 CALM      30.02S
OWATONNA       CLEAR     61  57  88 NE3       30.02R
WASECA         CLEAR     63  57  82 NE7       30.03R
ALBERT LEA     CLEAR     61  57  88 NE5       30.01S
$$
MNZ078>079-086>088-094>096-240600-
   Southeast Minnesota

CITY           SKY/WX    TMP DP  RH WIND       PRES   REMARKS
ROCHESTER      CLOUDY    64  58  80 N10       30.01R
RED WING       CLEAR     63  55  77 CALM      30.00S
STANTON        CLOUDY    62  59  91 NE3       30.00S
DODGE CENTER   CLEAR     61  57  88 NE3       30.02R
WINONA         CLOUDY    66  61  82 CALM      29.99R
AUSTIN         CLEAR     61  55  82 N3        30.01R
PRESTON        CLEAR     60  56  88 N3        30.01R
$$
ABBREVIATIONS USED IN REMARKS
   TC - TEMPERATURES IN CELSIUS
  WCI - WIND CHILL INDEX
   HX - HEAT INDEX
  VSB - VISIBILITY
$$




USA.gov is the U.S. government's official web portal to all federal, state and local government web resources and services.